When you browse on this site, cookies collect data to enhance your experience and personalize the content and advertising you see.
Visit our Privacy Policy to learn more. By continuing to use the site, you agree to this use of cookies and data.

Meteo pe oră la Zenica

Astăzi, 5 Iulie, Duminică

Timp Temperatura Precipitaţii Vânt Presiune Umiditate
00:00 +13°C° 0 mm 1 m/s 678 mmHg 94%
01:00 +13°C° 0 mm 1 m/s 678 mmHg 94%
02:00 +13°C° 0 mm 1 m/s 677 mmHg 94%
03:00 +13°C° 0 mm 1 m/s 677 mmHg 95%
04:00 +13°C° 0 mm 1 m/s 677 mmHg 95%
05:00 +14°C° 0 mm 1 m/s 678 mmHg 93%
06:00 +15°C° 0 mm 1 m/s 678 mmHg 90%
07:00 +16°C° 0 mm 2 m/s 679 mmHg 90%
08:00 +17°C° 0.2 mm 2 m/s 679 mmHg 88%
09:00 +18°C° 0.2 mm 2 m/s 679 mmHg 86%
10:00 +19°C° 0.2 mm 2 m/s 679 mmHg 84%
11:00 +20°C° 0.2 mm 2 m/s 679 mmHg 79%
12:00 +21°C° 0.2 mm 3 m/s 679 mmHg 75%
13:00 +22°C° 0 mm 3 m/s 679 mmHg 70%
14:00 +21°C° 0.1 mm 3 m/s 679 mmHg 70%
15:00 +21°C° 0.1 mm 3 m/s 678 mmHg 70%
16:00 +21°C° 0.1 mm 2 m/s 678 mmHg 70%
17:00 +20°C° 0 mm 2 m/s 678 mmHg 75%
18:00 +19°C° 0 mm 2 m/s 677 mmHg 81%
19:00 +18°C° 0 mm 1 m/s 677 mmHg 86%
20:00 +16°C° 0 mm 1 m/s 677 mmHg 88%
21:00 +15°C° 0 mm 1 m/s 677 mmHg 91%
22:00 +14°C° 0 mm 1 m/s 676 mmHg 93%
23:00 +13°C° 0 mm 1 m/s 676 mmHg 93%

Mâine, 6 Iulie, Luni

Timp Temperatura Precipitaţii Vânt Presiune Umiditate
00:00 +13°C° 0 mm 1 m/s 676 mmHg 92%
01:00 +13°C° 0 mm 1 m/s 676 mmHg 92%
02:00 +12°C° 0 mm 1 m/s 675 mmHg 92%
03:00 +12°C° 0 mm 1 m/s 675 mmHg 92%
04:00 +12°C° 0 mm 1 m/s 675 mmHg 92%
05:00 +14°C° 0 mm 1 m/s 675 mmHg 88%
06:00 +15°C° 0 mm 1 m/s 675 mmHg 84%
07:00 +18°C° 0 mm 1 m/s 676 mmHg 80%
08:00 +20°C° 0 mm 1 m/s 676 mmHg 74%
09:00 +20°C° 0 mm 2 m/s 676 mmHg 68%
10:00 +23°C° 0 mm 2 m/s 676 mmHg 62%
11:00 +24°C° 0 mm 2 m/s 676 mmHg 61%
12:00 +24°C° 0 mm 2 m/s 676 mmHg 61%
13:00 +25°C° 0 mm 3 m/s 676 mmHg 60%
14:00 +24°C° 0 mm 2 m/s 675 mmHg 63%
15:00 +24°C° 0 mm 2 m/s 675 mmHg 65%
16:00 +24°C° 0 mm 2 m/s 675 mmHg 67%
17:00 +21°C° 0 mm 2 m/s 674 mmHg 74%
18:00 +21°C° 0 mm 1 m/s 674 mmHg 80%
19:00 +20°C° 0 mm 1 m/s 674 mmHg 86%
20:00 +19°C° 0 mm 1 m/s 674 mmHg 89%
21:00 +16°C° 0 mm 1 m/s 674 mmHg 92%
22:00 +15°C° 0 mm 1 m/s 674 mmHg 94%
23:00 +15°C° 0.5 mm 2 m/s 674 mmHg 95%

Poimâine, 7 Iulie, Marţi

Timp Temperatura Precipitaţii Vânt Presiune Umiditate
00:00 +14°C° 0.5 mm 3 m/s 675 mmHg 96%
01:00 +13°C° 0.5 mm 4 m/s 676 mmHg 96%
02:00 +12°C° 0.3 mm 3 m/s 676 mmHg 96%
03:00 +10°C° 0.3 mm 3 m/s 676 mmHg 95%
04:00 +9°C° 0.3 mm 3 m/s 676 mmHg 95%
05:00 +9°C° 0 mm 3 m/s 676 mmHg 93%
06:00 +9°C° 0 mm 3 m/s 677 mmHg 91%
07:00 +9°C° 0 mm 3 m/s 678 mmHg 90%
08:00 +10°C° 0 mm 3 m/s 678 mmHg 85%
09:00 +11°C° 0 mm 3 m/s 678 mmHg 80%
10:00 +13°C° 0 mm 2 m/s 678 mmHg 76%
11:00 +12°C° 0 mm 3 m/s 678 mmHg 74%
12:00 +12°C° 0 mm 3 m/s 678 mmHg 72%
13:00 +12°C° 0 mm 3 m/s 678 mmHg 70%
14:00 +13°C° 0 mm 3 m/s 678 mmHg 69%
15:00 +13°C° 0 mm 3 m/s 678 mmHg 68%
16:00 +14°C° 0 mm 3 m/s 678 mmHg 67%
17:00 +13°C° 0 mm 3 m/s 678 mmHg 72%
18:00 +13°C° 0 mm 2 m/s 678 mmHg 77%
19:00 +12°C° 0 mm 2 m/s 678 mmHg 83%
20:00 +11°C° 0 mm 1 m/s 678 mmHg 85%
21:00 +10°C° 0 mm 1 m/s 678 mmHg 88%
22:00 +8°C° 0 mm 1 m/s 678 mmHg 91%
23:00 +8°C° 0 mm 1 m/s 678 mmHg 91%

8 Iulie, Miercuri

Timp Temperatura Precipitaţii Vânt Presiune Umiditate
00:00 +8°C° 0 mm 1 m/s 678 mmHg 92%
01:00 +8°C° 0 mm 1 m/s 678 mmHg 92%
02:00 +7°C° 0 mm 1 m/s 677 mmHg 92%
03:00 +7°C° 0 mm 1 m/s 677 mmHg 93%
04:00 +7°C° 0 mm 1 m/s 677 mmHg 93%
05:00 +9°C° 0 mm 1 m/s 678 mmHg 86%
06:00 +11°C° 0 mm 1 m/s 678 mmHg 80%
07:00 +13°C° 0 mm 1 m/s 679 mmHg 73%
08:00 +15°C° 0 mm 1 m/s 679 mmHg 64%
09:00 +18°C° 0 mm 1 m/s 680 mmHg 56%
10:00 +20°C° 0 mm 1 m/s 680 mmHg 47%
11:00 +20°C° 0 mm 2 m/s 680 mmHg 45%
12:00 +21°C° 0 mm 2 m/s 680 mmHg 43%
13:00 +23°C° 0 mm 2 m/s 681 mmHg 42%
14:00 +23°C° 0 mm 2 m/s 680 mmHg 44%
15:00 +23°C° 0 mm 2 m/s 680 mmHg 46%
16:00 +23°C° 0 mm 2 m/s 680 mmHg 49%
17:00 +21°C° 0 mm 1 m/s 680 mmHg 60%
18:00 +19°C° 0 mm 1 m/s 679 mmHg 71%
19:00 +16°C° 0 mm 1 m/s 679 mmHg 81%
20:00 +15°C° 0 mm 1 m/s 679 mmHg 84%
21:00 +13°C° 0 mm 1 m/s 679 mmHg 87%
22:00 +11°C° 0 mm 0 m/s 679 mmHg 89%
23:00 +12°C° 0 mm 1 m/s 679 mmHg 87%

9 Iulie, Joi

Timp Temperatura Precipitaţii Vânt Presiune Umiditate
00:00 +12°C° 0 mm 1 m/s 679 mmHg 85%
01:00 +11°C° 0 mm 1 m/s 679 mmHg 83%
02:00 +11°C° 0 mm 1 m/s 679 mmHg 80%
03:00 +11°C° 0 mm 1 m/s 679 mmHg 77%
04:00 +11°C° 0 mm 1 m/s 679 mmHg 74%
05:00 +13°C° 0 mm 1 m/s 679 mmHg 71%
06:00 +15°C° 0 mm 1 m/s 680 mmHg 68%
07:00 +18°C° 0 mm 1 m/s 681 mmHg 65%
08:00 +20°C° 0 mm 1 m/s 681 mmHg 57%
09:00 +22°C° 0 mm 1 m/s 682 mmHg 49%
10:00 +24°C° 0 mm 1 m/s 682 mmHg 41%
11:00 +25°C° 0 mm 1 m/s 682 mmHg 40%
12:00 +26°C° 0 mm 1 m/s 682 mmHg 39%
13:00 +27°C° 0 mm 1 m/s 682 mmHg 38%
14:00 +27°C° 0 mm 1 m/s 682 mmHg 40%
15:00 +27°C° 0 mm 1 m/s 682 mmHg 42%
16:00 +27°C° 0 mm 1 m/s 681 mmHg 44%
17:00 +24°C° 0 mm 1 m/s 681 mmHg 54%
18:00 +20°C° 0 mm 0 m/s 680 mmHg 65%
19:00 +18°C° 0 mm 0 m/s 679 mmHg 75%
20:00 +17°C° 0 mm 0 m/s 679 mmHg 76%
21:00 +16°C° 0 mm 0 m/s 679 mmHg 77%
22:00 +14°C° 0 mm 0 m/s 679 mmHg 79%
23:00 +15°C° 0 mm 1 m/s 679 mmHg 78%

10 Iulie, Vineri

Timp Temperatura Precipitaţii Vânt Presiune Umiditate
00:00 +15°C° 0 mm 1 m/s 679 mmHg 78%
01:00 +14°C° 0 mm 1 m/s 678 mmHg 77%
02:00 +14°C° 0 mm 1 m/s 678 mmHg 77%
03:00 +14°C° 0 mm 1 m/s 678 mmHg 76%
04:00 +14°C° 0 mm 1 m/s 678 mmHg 76%
05:00 +16°C° 0 mm 1 m/s 678 mmHg 72%
06:00 +17°C° 0 mm 0 m/s 678 mmHg 69%
07:00 +19°C° 0 mm 0 m/s 679 mmHg 66%
08:00 +21°C° 0 mm 0 m/s 679 mmHg 59%
09:00 +25°C° 0 mm 1 m/s 680 mmHg 53%
10:00 +27°C° 0 mm 1 m/s 680 mmHg 46%
11:00 +28°C° 0 mm 1 m/s 680 mmHg 44%
12:00 +28°C° 0 mm 1 m/s 680 mmHg 42%
13:00 +29°C° 0 mm 1 m/s 680 mmHg 40%
14:00 +29°C° 0 mm 2 m/s 679 mmHg 43%
15:00 +28°C° 0 mm 2 m/s 679 mmHg 46%
16:00 +28°C° 0 mm 2 m/s 679 mmHg 49%
17:00 +26°C° 0.1 mm 1 m/s 678 mmHg 58%
18:00 +23°C° 0.1 mm 1 m/s 678 mmHg 67%
19:00 +21°C° 0.1 mm 1 m/s 677 mmHg 76%
20:00 +20°C° 0 mm 1 m/s 677 mmHg 76%
21:00 +19°C° 0 mm 1 m/s 677 mmHg 76%
22:00 +18°C° 0 mm 1 m/s 677 mmHg 76%
23:00 +16°C° 0 mm 1 m/s 677 mmHg 75%
Arată mai mult